SQ2WB-13 Weather Reports


time (UTC)temp
C
wind
direction
speed
KPH
gust
KPH
rain 1hr
cm
rain 24hr
cm
rain mn
cm
humidity
%
barometer
mb
20260905194501 12 249 4.8 4.8 0.00 0.38 0.00 99 1005.7
20260905193000 12 194 3.2 4.8 0.00 0.38 0.00 99 1005.7
20260905191502 12 235 3.2 4.8 0.00 0.38 0.00 99 1005.7
20260905190001 11 236 3.2 4.8 0.00 0.38 0.00 99 1005.7
20260905184501 11 203 1.6 3.2 0.00 0.38 0.00 99 1005.7
20260905183001 11 237 0.0 1.6 0.00 0.38 0.00 99 1005.7
20260905181501 11 239 1.6 1.6 0.00 0.38 0.00 99 1005.7
20260905180001 11 216 4.8 4.8 0.00 0.38 0.00 99 1005.7
20260905174501 11 228 1.6 1.6 0.00 0.38 0.00 99 1005.7
20260905173001 11 208 1.6 4.8 0.13 0.38 0.00 98 1005.7
20260905171500 11 271 3.2 8.0 0.94 0.25 0.00 94 1005.7
20260905170001 16 209 9.7 16.1 0.00 0.05 0.00 75 1004.7
20260905164502 16 196 14.5 14.5 0.00 0.05 0.00 77 1004.0
20260905163001 16 222 6.4 11.3 0.00 0.05 0.00 76 1004.0
20260905161501 16 231 4.8 16.1 0.00 0.05 0.00 76 1004.0
20260905160001 16 249 6.4 8.0 0.00 0.05 0.00 76 1004.7
20260905154500 16 210 6.4 9.7 0.00 0.05 0.00 74 1004.7
20260905153002 17 265 9.7 14.5 0.00 0.05 0.00 68 1004.7
20260905151502 18 235 9.7 9.7 0.00 0.05 0.00 68 1004.7
20260905150001 18 232 6.4 9.7 0.00 0.05 0.00 70 1004.0
20260905144502 18 216 14.5 16.1 0.00 0.05 0.00 69 1004.0
20260905143001 18 203 14.5 17.7 0.00 0.05 0.00 69 1004.0
20260905141502 18 236 9.7 9.7 0.00 0.05 0.00 73 1004.0
20260905140003 18 218 9.7 12.9 0.00 0.05 0.00 69 1004.0
20260905134503 17 186 14.5 14.5 0.00 0.05 0.00 76 1004.0
20260905133000 18 247 6.4 17.7 0.00 0.05 0.00 71 1003.7
20260905131502 18 279 9.7 19.3 0.00 0.05 0.00 71 1004.0
20260905130000 18 231 8.0 17.7 0.00 0.05 0.00 68 1003.7
20260905124502 20 278 11.3 11.3 0.00 0.05 0.00 64 1003.7
20260905123001 20 182 14.5 22.5 0.00 0.05 0.00 64 1003.7
20260905121501 20 270 17.7 30.6 0.00 0.05 0.00 64 1003.3
20260905120001 20 196 12.9 17.7 0.00 0.05 0.00 62 1003.3
20260905114501 20 211 6.4 8.0 0.00 0.05 0.00 64 1003.3
20260905113001 20 211 6.4 27.4 0.00 0.05 0.00 61 1003.3
20260905111501 18 217 4.8 12.9 0.00 0.05 0.00 65 1003.7
20260905110002 20 246 11.3 22.5 0.00 0.05 0.00 64 1003.7
20260905104502 18 259 22.5 25.7 0.00 0.05 0.00 65 1003.7
20260905103000 18 221 8.0 8.0 0.00 0.05 0.00 67 1003.7
20260905101501 18 219 6.4 8.0 0.00 0.05 0.00 65 1003.3
20260905100001 18 255 9.7 16.1 0.00 0.05 0.00 64 1003.3
20260905094501 18 227 14.5 17.7 0.00 0.05 0.00 64 1003.3
20260905093001 18 181 6.4 12.9 0.00 0.05 0.00 69 1003.3
20260905091500 18 163 12.9 25.7 0.00 0.05 0.00 67 1003.0
20260905090001 18 188 4.8 11.3 0.00 0.05 0.00 70 1003.0
20260905084501 18 315 6.4 17.7 0.00 0.05 0.00 71 1003.0
20260905083001 17 168 8.0 8.0 0.00 0.05 0.00 72 1003.0
20260905081502 17 211 9.7 12.9 0.00 0.05 0.00 72 1003.0
20260905080000 17 231 8.0 20.9 0.00 0.05 0.00 74 1002.7
20260905074502 16 225 6.4 12.9 0.00 0.05 0.00 75 1002.3
20260905073001 17 241 9.7 16.1 0.00 0.05 0.00 75 1002.3
20260905071500 17 207 12.9 22.5 0.00 0.05 0.00 77 1002.3
20260905070001 16 33 14.5 24.1 0.00 0.05 0.00 78 1002.0
20260905064501 16 161 9.7 20.9 0.00 0.05 0.00 81 1001.3
20260905063002 16 207 9.7 16.1 0.00 0.05 0.00 82 1001.3
20260905061502 15 218 9.7 14.5 0.00 0.05 0.00 85 1001.3
20260905060000 15 237 11.3 16.1 0.00 0.05 0.00 87 1001.0
20260905054502 15 230 4.8 6.4 0.00 0.05 0.00 89 1001.0
20260905053001 15 226 4.8 4.8 0.00 0.05 0.00 91 1001.0
20260905051501 15 217 8.0 8.0 0.00 0.05 0.00 90 1000.6
20260905050001 15 211 11.3 14.5 0.00 0.05 0.00 90 1000.3
20260905044502 15 224 9.7 17.7 0.00 0.05 0.00 91 1000.3
20260905043001 13 232 9.7 9.7 0.00 0.05 0.00 91 1000.3
20260905041503 15 226 6.4 6.4 0.00 0.05 0.00 89 1000.3
20260905040004 15 202 12.9 14.5 0.00 0.05 0.00 89 1000.0
20260905034503 15 227 6.4 6.4 0.00 0.05 0.00 89 1000.0
20260905033000 15 237 4.8 11.3 0.00 0.05 0.00 88 1000.0
20260905031501 15 243 11.3 11.3 0.00 0.05 0.00 86 1000.0
20260905030001 15 228 4.8 8.0 0.00 0.05 0.00 88 999.6
20260905024502 15 233 6.4 12.9 0.00 0.05 0.00 86 999.6
20260905023001 15 250 8.0 8.0 0.00 0.05 0.00 88 999.6
20260905021501 15 252 4.8 22.5 0.00 0.05 0.00 89 999.6
20260905020002 15 226 4.8 6.4 0.00 0.05 0.00 92 998.9
20260905014501 15 158 9.7 9.7 0.00 0.05 0.00 92 998.9
20260905013002 15 141 8.0 8.0 0.00 0.05 0.00 95 998.9
20260905011502 15 256 6.4 8.0 0.00 0.05 0.00 98 997.9
20260905010001 15 275 19.3 24.1 0.13 0.05 0.00 99 997.6
20260905004501 15 305 4.8 8.0 0.38 0.05 0.00 99 997.6
20260905003001 16 216 6.4 9.7 0.13 0.00 0.00 97 997.6
20260905001501 16 208 9.7 9.7 0.00 0.00 0.00 91 997.6
20260905000002 16 253 12.9 25.7 0.00 0.00 0.00 91 997.2
20260904234501 16 294 4.8 9.7 0.00 0.00 0.00 91 997.2
20260904233001 17 215 14.5 17.7 0.00 0.00 0.00 91 997.2
20260904231501 17 253 9.7 16.1 0.00 0.00 0.00 90 996.9
20260904230001 17 176 6.4 9.7 0.00 0.00 0.00 91 996.6
20260904224501 17 221 8.0 14.5 0.00 0.00 0.00 91 996.6
20260904223001 17 238 9.7 25.7 0.00 0.00 0.00 90 996.6
20260904221502 17 221 8.0 16.1 0.00 0.00 0.00 92 996.2
20260904220002 17 229 11.3 11.3 0.00 0.56 0.00 93 995.6
20260904214502 17 214 11.3 20.9 0.00 0.56 0.00 96 995.6
20260904213002 17 220 4.8 4.8 0.00 0.56 0.00 99 995.2
20260904211502 17 244 6.4 6.4 0.00 0.56 0.00 99 995.2
20260904210001 17 245 6.4 9.7 0.00 0.56 0.00 99 995.2
20260904203001 17 240 4.8 6.4 0.13 0.51 0.00 99 995.6
20260904201501 17 232 4.8 4.8 0.13 0.51 0.00 97 996.2
20260904200001 17 228 6.4 6.4 0.00 0.48 0.00 94 996.2